Location: Prague
(50.0830°N, 14.4670°E)
Time: 09:55:10
(UTC+02:00)

RS-15 - Pass Details

Date: 07 April 2023
Orbit: 1885 x 2159 km, 64.8° (Epoch: 29 May)

Event Time Altitude Azimuth Distance (km) Brightness Sun altitude
Rises 01:37:37 0° 321° (NW) 5,621 11.0 -32.8°
Reaches altitude 10° 01:41:30 10° 313° (NW) 4,583 10.3 -32.7°
Maximum altitude 01:51:31 34° 255° (WSW) 2,961 8.7 -32.4°
Enters shadow 01:52:01 34° 250° (WSW) 2,961 8.6 -32.3°
